Hourly Data Report for June 10, 2018

LONDON CS
ONTARIO
Current Station Operator: ECCC - MSC

43°02'00.000" N
81°09'00.000" W
278.00 m
6144478
71622
WSN

Download Data

Hourly Data (June 2018)
Hourly Data Report for June 10, 2018
TIME Temp Definition
°C
Dew Point Definition
°C
Rel Hum Definition
%
Wind Dir Definition
10's deg

Wind Spd Definition
km/h
Visibility Definition
km
Stn Press Definition
kPa
Hmdx Definition


Wind Chill Definition


Weather Definition


00:00 17.8 11.3 66 LegendMM LegendMM   98.53     LegendNANA
01:00 17.8 11.0 64 LegendMM LegendMM   98.47     LegendNANA
02:00 17.9 10.5 62 LegendMM LegendMM   98.44     LegendNANA
03:00 17.7 10.2 62 LegendMM LegendMM   98.38     LegendNANA
04:00 17.1 10.2 64 LegendMM LegendMM   98.38     LegendNANA
05:00 16.9 9.9 63 LegendMM LegendMM   98.39     LegendNANA
06:00 16.5 10.1 66 LegendMM LegendMM   98.42     LegendNANA
07:00 17.1 9.8 62 LegendMM LegendMM   98.41     LegendNANA
08:00 18.3 9.9 58 LegendMM LegendMM   98.39     LegendNANA
09:00 18.4 10.4 60 LegendMM LegendMM   98.41     LegendNANA
10:00 18.9 11.4 62 LegendMM LegendMM   98.38     LegendNANA
11:00 21.8 11.7 53 LegendMM LegendMM   98.31     LegendNANA
12:00 22.3 11.3 50 LegendMM LegendMM   98.28     LegendNANA
13:00 21.7 11.3 52 LegendMM LegendMM   98.28     LegendNANA
14:00 21.5 10.5 50 LegendMM LegendMM   98.26     LegendNANA
15:00 21.2 10.0 49 LegendMM LegendMM   98.21     LegendNANA
16:00 20.5 8.3 45 LegendMM LegendMM   98.19     LegendNANA
17:00 19.6 5.8 41 LegendMM LegendMM   98.16     LegendNANA
18:00 19.2 6.1 43 LegendMM LegendMM   98.18     LegendNANA
19:00 18.8 5.4 41 LegendMM LegendMM   98.25     LegendNANA
20:00 18.3 5.0 42 LegendMM LegendMM   98.24     LegendNANA
21:00 17.6 5.9 46 LegendMM LegendMM   98.27     LegendNANA
22:00 17.2 6.0 48 LegendMM LegendMM   98.25     LegendNANA
23:00 16.5 5.9 50 LegendMM LegendMM   98.28     LegendNANA

Notes on Data Quality.

Legend

  • E = Estimated
  • M = Missing
  • NA = Not Available*
  • [empty] = Indicates an unobserved value
Date modified: